Lotnisko EPSD


Aktualna POGODA w okolicy (METAR i TAF z EPSC)

EPSC 010900Z 07004KT 040V100 9000 SCT015 OVC018 01/M02 Q1030


TAF EPSC 010530Z 0106/0206 13008KT 9999 OVC012 TEMPO 0106/0109 4500 BR BKN006 BECMG 0109/0111 BKN020 PROB40 TEMPO 0109/0117 BKN012 BECMG 0117/0119 BKN006

Wszystkie o pogodzie w Polsce znajdziesz oczywiście na AWIACJA IMGW

Przed przylotem na lotnisko w Szczecinie-Dąbiu (EPSD) konieczne jest wcześniejsze uzyskanie zgody na lądowanie (PPR)

Znak ICAO: EPSD

Współrzędne lotniska: N532332 E0143802

Współrzędne ATZ: N532228 E0144207

ATZ lotniska: okrąg o promieniu 10km

Granice pionowe ATZ: GND/5500 ft (1676 m) AMSL

Łączność radiowa: Szczecin Radio na częstotliwości 122.2 MHz 125,335 MHz
Pas trawiasty: RWY 09R – 27L (900m x 50m)

Elewacja: 3 ft (1 m)

Pliki do wglądu lub pobrania:

Plik Opis Wielkość pliku
pdf EPSD Szczecin Dąbie Dane opisowe
135 KB
pdf EPSD plan lotniska Drogi startowe w użyciu
198 KB
pdf EPSD krąd nadlotniskowy Zasady poruszania się po kręgu
100 KB
pdf Regulamin hangarowania Regulamin użytkowania hangaru Aeroklubu Szczecińskiego
108 KB